Location: Colle Santa Colomba
(42.0333°N, 12.5667°E)
Time: 19:32:26
(UTC+00:00)

Cosmos 1844 - Pass Details

Date: 25 October 2021
Orbit: 822 x 868 km, 70.9° (Epoch: 05 December)

Event Time Altitude Azimuth Distance (km) Brightness Sun altitude
Rises 18:00:18 0° 336° (NNW) 3,458 7.2 -20.5°
Reaches altitude 10° 18:02:48 10° 338° (NNW) 2,514 6.5 -21.0°
Maximum altitude 18:08:36 80° 65° (ENE) 878 3.6 -22.1°
Enters shadow 18:11:31 30° 149° (SSE) 1,473 4.6 -22.6°
